Mount Shasta, CA

10:12 PM PDT on May 21, 2018 (GMT -0700)
Mount Shasta

Weather History for KMHS - August, 2012

Change the Weather History Date:

Saturday, August 11, 2012

  Actual Average Record
Temperature  
Mean Temperature 74 °F 68 °F  
Max Temperature 95 °F 86 °F 101 °F (1971)
Min Temperature 53 °F 49 °F 38 °F (1995)
Degree Days  
Heating Degree Days 0 1  
Month to date heating degree days 0 11  
Since 1 June heating degree days 199 186  
Since 1 July heating degree days 20 44  
Cooling Degree Days 9 3  
Month to date cooling degree days 82 43  
Year to date cooling degree days 255 211  
Since 1 June cooling degree days 246 203  
Growing Degree Days 24 (Base 50)    
Moisture  
Dew Point 44 °F    
Average Humidity 41    
Maximum Humidity 66    
Minimum Humidity 12    
Precipitation  
Precipitation 0.00 in 0.01 in 0.42 in (1965)
Month to date precipitation 0.00 0.11  
Year to date precipitation 24.55 27.10  
Sea Level Pressure  
Sea Level Pressure 29.95 in    
Wind  
Wind Speed 1 mph (NE)    
Max Wind Speed 7 mph    
Max Gust Speed 13 mph    
Visibility 9 miles    
Events      
T = Trace of Precipitation, MM = Missing Value Source: NWS Daily Summary

Daily Weather History Graph

Daily Weather History Graph

Search for Another Location

Airport or City:

Astronomy

Aug. 11, 2012 Rise Set
Actual Time 6:14 AM PDT 8:13 PM PDT
Civil Twilight 5:44 AM PDT 8:42 PM PDT
Nautical Twilight 5:08 AM PDT 9:19 PM PDT
Astronomical Twilight 4:28 AM PDT 9:59 PM PDT
Moon 12:46 AM PDT (8/11) 3:53 PM PDT (8/11)
Length of Visible Light 14h 58m
Length of Day
13h 58m
Waning Crescent, 31% of the Moon is Illuminated
Aug 11
Waning Crescent
Aug 17
New
Aug 24
First Quarter
Aug 31
Full
Sep 8
Last Quarter

Hourly Weather History & Observations

Time (PDT) Temp. Dew Point Humidity Pressure Visibility Wind Dir Wind Speed Gust Speed Precip Events Conditions
12:56 AM 62.1 °F 44.1 °F 52% 29.97 in 10.0 mi Calm Calm - N/A   Clear
1:56 AM 60.1 °F 44.1 °F 55% 29.97 in 10.0 mi Calm Calm - N/A   Clear
2:56 AM 57.0 °F 43.0 °F 59% 29.97 in 10.0 mi Calm Calm - N/A   Clear
3:56 AM 57.0 °F 42.1 °F 57% 29.98 in 10.0 mi Calm Calm - N/A   Clear
4:56 AM 55.0 °F 42.1 °F 62% 29.98 in 10.0 mi ENE 3.5 mph - N/A   Clear
5:56 AM 54.0 °F 42.1 °F 64% 29.99 in 10.0 mi NE 3.5 mph - N/A   Overcast
6:56 AM 54.0 °F 43.0 °F 66% 29.99 in 10.0 mi Calm Calm - N/A   Clear
7:56 AM 60.1 °F 46.9 °F 62% 30.00 in 10.0 mi ENE 3.5 mph - N/A   Clear
8:56 AM 68.0 °F 52.0 °F 56% 29.99 in 10.0 mi Calm Calm - N/A   Overcast
9:56 AM 75.0 °F 52.0 °F 44% 29.98 in 10.0 mi WNW 4.6 mph - N/A   Mostly Cloudy
10:56 AM 80.1 °F 52.0 °F 38% 29.97 in 10.0 mi Variable 4.6 mph - N/A   Clear
11:56 AM 82.9 °F 50.0 °F 32% 29.96 in 10.0 mi Variable 5.8 mph - N/A   Clear
12:56 PM 88.0 °F 50.0 °F 27% 29.94 in 10.0 mi Calm Calm - N/A   Clear
1:56 PM 91.0 °F 46.9 °F 22% 29.92 in 8.0 mi Calm Calm - N/A   Clear
2:56 PM 93.0 °F 35.1 °F 13% 29.91 in 6.0 mi Calm Calm - N/A   Haze
3:56 PM 93.9 °F 37.9 °F 14% 29.90 in 7.0 mi Calm Calm - N/A   Clear
4:56 PM 93.0 °F 33.1 °F 12% 29.89 in 9.0 mi Calm Calm - N/A   Clear
5:56 PM 88.0 °F 39.9 °F 18% 29.89 in 8.0 mi Calm Calm - N/A   Clear
6:56 PM 84.0 °F 44.1 °F 25% 29.90 in 7.0 mi Calm Calm - N/A   Clear
7:56 PM 73.0 °F 55.0 °F 53% 29.92 in 8.0 mi Calm Calm - N/A   Clear
8:56 PM 68.0 °F 44.1 °F 42% 29.94 in 10.0 mi Calm Calm - N/A   Clear
9:56 PM 66.0 °F 37.9 °F 36% 29.94 in 10.0 mi Calm Calm - N/A   Clear
10:56 PM 61.0 °F 36.0 °F 39% 29.95 in 10.0 mi NE 3.5 mph - N/A   Clear
11:56 PM 55.9 °F 35.1 °F 45% 29.96 in 10.0 mi Calm Calm - N/A   Clear